Regional Weather Roundup
Issued by NWS

Home | Current Version | Previous Version | Graphics & Text | Print | Product List | Glossary On
Versions: 1 2 3 4 5 6 7 8 9 10 11 12 13 14 15 16 17 18 19 20 21 22 23 24 25 26 27 28 29 30 31 32 33 34 35 36 37 38 39 40 41 42 43 44 45 46 47 48 49 50
000
ASUS45 KBOU 240707
RWRCO

WEATHER ROUNDUP FOR COLORADO
NATIONAL WEATHER SERVICE DENVER/BOULDER CO
1200 AM MST FRI FEB 24 2017

NOTE: "FAIR" INDICATES FEW OR NO CLOUDS BELOW 12000 FEET WITH NO
SIGNIFICANT WEATHER AND/OR OBSTRUCTIONS TO VISIBILITY.

COZ001>005-013-030-031-240800-
...NORTHWEST COLORADO...

CITY           SKY/WX    TMP DP  RH WIND       PRES   REMARKS
CRAIG          FLURRIES  22  16  78 W10       29.76R WCI  11
HAYDEN         FAIR      19  16  86 CALM      29.73S
MEEKER         FLURRIES  22  18  85 SW8       29.76R WCI  12
MOUNT WERNER   NOT AVBL
STEAMBOAT SPGS CLOUDY    19  16  91 CALM      29.72S
WALDEN         NOT AVBL
$$

COZ006>008-011-240800-
...WEST CENTRAL VALLEYS...

CITY           SKY/WX    TMP DP  RH WIND       PRES   REMARKS
GRAND JUNCTION CLOUDY    28  24  85 N6        29.81R WCI  22
MONTROSE       FAIR      23  12  62 E6        29.82R WCI  16
EAGLE          CLOUDY    18  15  88 E6        29.78R WCI  10
RIFLE          FAIR      25  24  96 CALM      29.80R
DELTA          FAIR      26  17  67 NE3       29.81S
NUCLA          CLOUDY    27  10  50 E7        29.84S WCI  19
$$

COZ017>023-064>068-240800-
...SOUTHWEST COLORADO...

CITY           SKY/WX    TMP DP  RH WIND       PRES   REMARKS
DURANGO        CLOUDY    20  10  65 CALM      29.79R
CORTEZ         FAIR      23  14  68 E5        29.82R WCI  17
PAGOSA SPRINGS FAIR      12   3  66 CALM      29.78R
TELLURIDE      LGT SNOW  12   9  88 CALM      29.76S
WOLF CREEK PAS FAIR       0  -6  78 SW8       29.69S WCI -15
$$

COZ009-010-012-014-032>034-037-058>063-240800-
...CENTRAL COLORADO...

CITY           SKY/WX    TMP DP  RH WIND       PRES   REMARKS
ASPEN          MOCLDY    15   5  64 SW6       29.71R WCI   6
BUENA VISTA    FAIR      19   0  42 W10       29.70S WCI   8
COPPER MTN     LGT SNOW   5  -4  66 MISG      29.58S
BERTHOUD PASS  CLOUDY    -2 -13  60 NW23      29.53S HAZE    WCI -26
COTTONWOOD PAS MOCLDY    16   0  48 W15G25    29.64F WCI   1
GUNNISON       FLURRIES  10   3  73 E3        29.76S
KREMMLING      MOCLDY    21  18  86 CALM      29.72S
LEADVILLE      CLOUDY     0  -6  76 CALM      29.64
MONARCH PASS   CLOUDY     1  -2  85 W21G30    29.69S WCI -20
SALIDA         FAIR      20   4  50 SW6       29.80S WCI  13
SUNLIGHT       NOT AVBL
WILKERSON PASS FAIR       3   0  85 SW10G16   29.62S WCI -12
$$

COZ069>075-240800-
...SAN LUIS VALLEY/SANGRE DE CRISTO MOUNTAINS...

CITY           SKY/WX    TMP DP  RH WIND       PRES   REMARKS
ALAMOSA        FAIR      17   7  64 NE5       29.73S WCI  10
LA VETA PASS   FAIR      10   0  61 SW16G29   29.65S WCI  -7
SAGUACHE       FAIR      12   3  67 N10       29.74S WCI  -1
$$

COZ035-036-038>040-240800-
...NORTHERN COLORADO FRONT RANGE...

CITY           SKY/WX    TMP DP  RH WIND       PRES   REMARKS
DENVER INTL AP CLOUDY    19  13  77 N9        29.84F WCI   8
DMNS CITY PARK   N/A     19  13  80 MISG      29.85S
AURORA         NOT AVBL
FRONT RANGE AP FLURRIES  21  18  86 NW8       29.84S WCI  12
ERIE MUNI ARPT CLOUDY    21  16  80 N3        29.87S
BOULDER MUN AP LGT SNOW  19  18  93 CALM      29.86S
CENTENNIAL     FAIR      14  11  87 N8        29.82S WCI   3
BROOMFIELD     LGT SNOW  19  18  93 NW5       29.84F WCI  13
FORT COLLINS   CLOUDY    21  14  74 N8        29.87S WCI  11
LONGMONT       CLOUDY    23  15  70 N5        29.89S WCI  17
$$

COZ041-046-047-076>085-087-088-240800-
...PIKES PEAK/PALMER DIVIDE AND SOUTHERN FOOTHILLS...

CITY           SKY/WX    TMP DP  RH WIND       PRES   REMARKS
COLO. SPRINGS  FAIR      17   6  62 N25G31    29.73S WCI  -1
A. F. ACADEMY  FAIR      14   7  76 N20       29.73F WCI  -4
SCHRIEVER AFB  FAIR      14   8  75 N20G28    29.74S WCI  -3
ELLICOTT       FAIR     N/A N/A N/A N21G31      N/A
FALCON         FAIR      13   8  78 N22       29.72S WCI  -6
FORT CARSON    FAIR      17   8  66 N14       29.74F WCI   3
LIMON          FLURRIES  18  15  88 NW18      29.79R WCI   2
MONUMENT HILL  LGT SNOW  12  10  92 NW8       29.77S WCI   1
TRINIDAD       CLOUDY    24  17  74 NE9       29.78S WCI  14
$$

COZ042>045-048>051-090-091-240800-
...NORTHEAST COLORADO...

CITY           SKY/WX    TMP DP  RH WIND       PRES   REMARKS
GREELEY ARPT   CLOUDY    21  17  84 NW8       29.89S WCI  11
AKRON          LGT SNOW  19  17  92 N13       29.82R FOG     WCI   6
BURLINGTON     CLOUDY    23  18  81 N21G30    29.78S WCI   8
WRAY           NOT AVBL
STERLING       LGT SNOW  23  21  93 N13       29.85S WCI  11
HOLYOKE        LGT SNOW  25  21  86 N12       29.83S WCI  14
FORT MORGAN    LGT SNOW  21  18  90 N8        29.86S WCI  11
$$

COZ086-089-092>099-240800-
...SOUTHEAST COLORADO...

CITY           SKY/WX    TMP DP  RH WIND       PRES   REMARKS
PUEBLO         FAIR      23  11  60 N7        29.81R WCI  15
LA JUNTA       MOCLDY    25  14  63 N13       29.83R WCI  14
LAMAR          CLOUDY    27  15  61 N17G26    29.81R WCI  14
SPRINGFIELD      N/A     24  18  77 N18G29    29.76R WCI  10
$$



USA.gov is the U.S. government's official web portal to all federal, state and local government web resources and services.